Wind_Speed
38 39 39 40 42 43 44 47 49 47 45 44 43 41 38 33 33 35 35 31 27 25 25 26 26 24 21 19 18 16 16 18 19 18 16 16 21 30 33 31 29 27 24 22 22 22 21 19 18 16 16 17 16 16 16 16 17 16 16 16 18 18 18
38 38 39 40 42 43 44 45 47 47 46 46 45 43 41 38 37 38 36 32 29 28 27 27 27 26 22 19 18 17 16 17 19 20 18 17 20 25 29 30 29 28 26 25 24 23 22 20 18 17 16 16 15 15 14 14 15 16 16 17 17 17 18
37 38 39 40 42 43 44 45 46 47 48 47 46 45 44 41 40 40 37 33 31 30 28 27 27 26 24 22 20 19 17 18 19 19 19 19 20 22 26 29 30 30 29 28 26 23 21 20 18 17 16 16 15 15 15 14 14 14 14 15 16 16 17
37 37 38 40 41 43 44 45 46 47 48 47 46 46 45 43 41 41 40 36 34 31 29 29 28 26 25 25 23 20 18 17 17 17 17 17 17 19 25 31 34 34 32 29 26 24 23 22 21 19 18 17 17 16 16 15 15 14 14 14 15 16 17
37 37 38 40 41 42 44 46 46 48 49 48 47 47 46 45 43 41 41 41 38 34 31 30 29 28 27 26 25 23 21 19 18 17 17 17 16 16 22 31 35 34 32 28 27 27 27 26 23 22 22 21 20 19 17 16 16 16 16 16 16 18 19
37 37 38 40 40 42 44 46 46 48 50 49 48 48 48 47 46 43 41 40 40 37 34 32 31 30 28 27 26 24 23 22 21 20 19 18 18 17 20 25 29 30 30 29 28 28 28 27 25 24 24 23 23 21 19 18 18 18 17 17 17 19 21
38 37 39 40 40 41 43 45 46 47 49 51 51 49 49 49 48 46 42 40 39 38 37 35 33 31 29 28 27 26 24 24 24 24 24 22 21 21 21 22 23 26 28 30 31 31 29 28 27 27 26 25 25 24 22 21 21 21 21 20 19 20 21
38 37 38 40 40 40 41 43 46 47 49 52 52 51 50 50 50 48 44 41 40 38 36 35 35 33 31 29 28 27 26 26 26 26 26 26 24 23 22 22 23 25 27 29 30 32 32 31 31 30 30 29 27 26 25 24 24 25 24 23 23 22 22
38 38 37 39 40 39 40 42 45 47 49 51 53 52 52 51 51 50 46 43 42 39 36 35 35 35 33 31 29 28 27 27 27 26 25 25 25 24 24 25 25 26 27 27 28 30 32 33 34 32 31 30 28 26 25 26 27 27 27 27 27 26 25
36 40 37 38 40 39 40 42 44 46 49 50 51 52 53 53 52 51 48 46 45 43 39 36 35 35 34 32 30 29 28 28 29 28 25 23 24 25 27 28 28 28 28 27 26 28 30 31 33 32 30 28 28 27 27 29 29 29 29 30 30 30 29
32 38 40 39 40 41 41 42 43 44 47 49 50 51 52 53 53 51 50 48 47 47 45 41 38 37 36 35 34 32 31 30 31 32 30 26 25 27 29 30 30 29 29 28 26 26 27 28 29 29 28 28 28 29 30 31 31 31 31 30 31 33 33
30 33 41 42 41 42 42 42 42 42 43 46 48 49 50 52 53 52 51 50 49 49 48 45 43 42 41 39 38 37 35 34 33 34 34 31 29 29 30 30 30 29 28 29 27 26 27 28 27 26 26 27 27 28 29 30 30 30 30 30 31 33 35
33 30 39 43 43 43 42 42 41 41 40 42 45 47 48 50 52 52 52 52 51 50 50 48 47 46 45 43 42 40 39 37 35 35 35 34 32 32 31 31 30 28 27 27 26 26 25 25 25 25 26 26 26 25 26 27 27 27 27 27 29 32 35
36 32 36 42 43 42 41 39 40 40 39 40 42 44 46 48 50 51 52 53 53 52 51 50 49 48 47 45 44 43 40 39 37 35 34 34 33 33 33 32 31 30 29 26 25 24 24 22 21 22 22 23 23 24 24 25 25 25 25 24 25 29 32
38 34 35 38 41 43 42 39 37 37 38 39 40 42 44 46 48 51 52 53 53 53 52 52 50 49 47 45 44 43 41 38 37 35 33 32 32 33 34 35 34 33 31 29 25 24 24 22 20 20 20 20 21 22 23 24 25 24 23 22 23 26 28
39 36 36 36 36 39 43 44 41 38 37 38 39 41 43 45 47 49 51 51 52 52 51 51 50 49 47 44 42 41 40 39 36 34 32 31 30 29 32 35 34 33 33 33 30 25 24 23 22 22 22 22 23 23 21 22 24 24 22 20 21 23 25
39 37 37 37 33 33 35 41 45 42 38 38 39 39 41 43 45 46 48 48 48 50 51 49 48 46 45 43 41 40 40 39 36 34 33 31 27 25 28 31 31 31 32 33 31 27 25 25 24 24 24 24 25 24 22 21 24 24 23 22 21 21 23
37 37 36 35 34 32 29 30 39 43 41 39 39 39 40 42 43 43 45 46 46 48 50 49 46 43 42 42 42 41 40 38 37 35 34 32 28 25 26 29 29 29 29 30 30 29 27 27 26 25 26 26 26 25 23 23 23 22 21 22 21 19 19
35 36 35 34 34 33 29 27 32 40 44 43 40 39 40 42 43 43 43 45 46 47 47 48 47 45 45 44 43 41 40 38 38 37 36 34 31 27 27 29 30 30 29 29 30 30 30 30 29 28 28 28 28 26 25 26 26 23 22 22 22 20 18
34 36 36 34 34 33 31 30 31 35 42 45 44 43 44 45 45 45 44 44 44 44 44 46 48 47 46 45 43 40 39 38 37 36 35 34 31 29 29 31 32 32 31 29 29 30 30 31 30 29 29 29 29 28 27 27 27 26 25 25 25 24 22
32 35 37 36 36 34 33 32 32 32 37 44 46 46 47 48 47 47 46 46 45 44 44 45 47 47 45 44 43 41 39 38 37 35 35 34 31 29 30 32 32 33 32 31 30 31 31 31 31 30 30 29 30 30 29 29 28 27 27 26 26 25 24
30 33 35 36 37 37 36 34 33 32 35 41 47 49 48 48 47 47 47 47 47 46 46 45 44 43 43 43 43 44 42 41 39 36 34 34 32 31 31 30 30 30 31 31 32 32 32 32 32 31 31 31 30 31 31 30 29 28 27 26 25 24 23
26 30 32 33 35 37 38 36 33 33 34 37 44 48 48 48 48 47 46 46 44 42 44 45 43 41 41 42 44 45 45 45 44 41 38 37 37 35 34 33 32 31 31 31 32 32 32 32 32 32 32 32 31 31 32 32 31 30 29 27 26 25 24
19 24 28 29 31 34 36 36 35 35 34 32 34 40 44 46 46 45 45 46 43 37 34 37 40 40 40 41 42 43 44 46 47 46 44 43 42 41 40 39 39 38 36 34 34 34 34 34 33 32 32 32 32 32 32 32 32 31 30 29 27 26 26
14 17 21 25 28 30 32 32 32 35 36 34 31 33 37 40 42 42 42 45 45 40 34 33 35 37 40 41 41 41 40 42 45 48 49 48 48 47 47 46 44 42 41 38 37 36 36 36 35 35 34 34 34 34 33 33 33 32 31 30 29 28 27
14 14 15 19 23 27 29 29 30 33 36 36 34 32 33 35 38 40 40 41 42 42 39 38 38 38 39 41 43 42 41 41 42 44 46 47 48 50 50 50 49 46 44 41 40 39 38 37 36 36 36 35 35 35 34 34 34 33 33 32 30 29 28
13 15 16 17 19 23 26 28 29 31 35 37 38 36 34 35 37 39 41 42 42 42 41 42 42 42 41 41 43 45 46 45 44 44 44 45 47 47 48 49 50 49 47 45 43 42 41 40 39 37 37 36 36 35 35 34 34 33 32 32 31 30 29
12 13 16 17 18 19 22 25 26 28 31 36 39 38 37 36 36 37 38 40 42 42 41 41 43 45 45 44 43 43 45 46 46 44 41 41 45 47 47 48 48 49 49 48 47 46 45 45 44 41 39 37 36 36 35 34 33 32 31 31 30 30 30
15 14 14 16 18 19 21 22 24 24 26 30 34 36 36 36 36 36 36 37 38 39 39 39 40 43 46 47 46 45 44 45 48 48 43 38 37 38 42 46 49 49 50 51 50 50 49 48 47 45 43 41 39 38 37 35 34 33 33 32 31 31 31
18 17 16 16 17 19 22 23 24 24 24 26 28 30 32 33 34 36 36 36 37 37 37 38 38 39 42 44 46 47 47 45 46 48 48 44 38 33 34 39 44 47 50 52 52 53 52 51 49 47 45 44 42 40 38 37 37 36 36 36 36 35 35
19 20 19 19 18 19 21 23 25 26 26 26 27 28 28 29 31 33 35 36 38 38 38 39 39 39 41 41 42 45 49 50 48 47 47 45 42 39 37 38 40 42 44 47 50 51 52 52 50 48 46 45 43 42 41 41 40 40 40 40 40 40 39
20 21 21 22 22 21 21 22 24 26 27 28 29 29 28 28 28 29 31 33 35 36 37 38 39 40 41 42 42 42 46 50 53 53 53 51 48 46 44 44 44 44 42 42 42 43 44 45 45 44 44 43 42 43 43 43 42 42 42 42 42 43 42
21 22 23 23 24 25 25 24 24 25 26 28 29 30 31 31 31 30 30 31 32 34 36 38 39 38 38 39 40 39 40 45 49 52 54 53 51 49 49 48 48 47 46 44 43 42 41 40 40 41 42 43 44 45 45 45 45 45 45 45 44 44 44
22 23 23 24 25 26 27 28 28 28 28 28 29 30 31 32 34 34 34 34 33 34 36 38 40 40 39 36 33 32 32 34 38 42 43 43 42 43 45 47 48 48 47 46 45 44 43 43 42 43 44 46 48 49 48 48 48 48 48 48 47 47 46
25 26 26 27 27 28 29 30 31 32 32 32 32 31 31 32 33 34 35 37 37 37 37 38 40 42 42 40 38 37 35 32 33 35 37 37 37 37 38 41 44 47 48 48 48 47 46 45 44 44 45 46 47 49 49 49 48 48 48 49 49 49 48
28 29 30 30 30 31 31 32 33 34 35 35 34 34 34 34 33 34 34 36 37 39 40 40 41 42 43 43 44 47 47 43 39 38 39 39 39 39 38 39 40 43 46 48 49 49 49 48 48 47 46 46 47 47 48 48 48 48 49 49 49 49 49
29 30 30 31 31 32 32 33 34 36 37 37 37 36 36 36 36 36 36 36 37 38 39 41 42 43 44 44 45 48 50 48 44 42 41 42 42 42 42 41 41 41 43 45 48 49 50 51 51 50 50 49 49 48 48 48 49 49 49 50 50 50 50
Wind_Direction
208 206 206 208 208 206 206 208 211 214 216 218 221 224 226 218 211 216 223 225 219 210 210 213 212 211 209 211 213 212 214 217 220 215 209 213 205 194 195 202 208 210 207 205 205 207 208 206 203 200 199 198 194 193 196 198 201 205 207 209 210 210 208
207 206 205 207 208 208 208 209 212 214 214 217 219 222 225 221 214 214 218 220 218 212 210 213 213 208 204 206 209 210 211 214 221 220 213 209 208 204 203 206 210 212 209 206 206 208 210 209 207 204 205 207 204 200 200 201 202 204 208 211 212 212 210
205 205 205 206 207 208 208 209 211 213 215 218 220 221 224 224 218 214 214 217 218 215 210 213 214 208 203 203 207 210 212 214 219 222 218 214 216 217 213 212 213 213 212 209 206 208 211 213 214 212 209 210 211 209 204 203 206 207 210 214 216 217 215
202 203 205 206 207 207 208 209 210 212 216 218 220 222 225 226 224 218 215 217 220 218 213 213 215 211 205 205 207 210 214 219 222 224 221 218 221 221 216 213 214 213 212 211 210 209 210 213 216 219 218 214 215 217 213 210 211 210 210 212 214 218 219
202 202 204 206 207 207 208 210 210 211 214 217 219 222 225 226 227 224 219 218 221 222 217 215 217 215 210 208 209 211 215 219 223 226 223 218 217 218 216 214 213 212 210 210 213 213 212 212 213 217 222 221 220 222 222 220 220 216 213 212 211 213 215
202 201 203 205 207 208 208 209 210 211 213 216 218 222 225 227 228 227 223 221 222 224 222 220 221 220 216 213 212 212 215 218 220 222 224 219 214 214 217 216 214 214 212 211 216 220 217 215 215 217 222 224 224 226 227 228 228 226 223 219 217 218 217
202 201 202 204 205 207 209 209 210 212 214 216 218 220 225 228 229 229 227 224 224 225 226 224 222 223 221 219 218 215 215 218 218 220 222 221 217 215 218 221 219 219 217 215 219 222 221 219 219 220 222 224 225 227 230 232 233 233 231 228 225 225 225
202 201 202 204 205 206 208 210 210 211 214 217 218 220 223 227 230 231 230 228 227 227 229 226 223 225 226 225 224 221 219 220 220 220 222 223 223 221 220 222 223 223 223 222 221 221 220 219 220 222 222 222 224 227 230 231 233 236 238 237 233 228 227
202 203 202 204 206 207 208 211 210 210 213 217 219 221 222 225 229 231 230 229 229 230 230 227 224 228 231 230 228 223 222 224 224 223 224 226 228 229 228 226 225 223 225 227 226 223 222 221 221 222 223 222 224 230 235 235 236 240 242 242 239 232 228
198 202 205 205 205 207 210 212 212 212 213 216 218 220 223 225 228 231 231 230 230 230 230 230 229 231 235 235 232 227 226 229 230 230 230 231 231 230 230 230 229 227 227 228 228 224 222 222 222 223 225 226 228 232 235 235 237 240 242 241 240 236 233
195 198 204 206 206 208 211 214 215 214 215 217 219 220 223 225 228 231 232 232 232 231 232 233 233 234 237 239 238 235 234 236 237 237 237 238 238 235 233 232 231 232 231 230 227 223 222 224 224 224 225 228 231 232 233 234 236 239 241 241 242 239 237
196 195 202 206 207 209 212 214 216 218 218 219 221 221 223 225 227 230 232 233 233 234 236 237 236 236 237 239 241 240 242 245 245 241 240 241 243 241 238 234 231 232 233 231 226 222 224 227 225 223 223 226 230 233 235 236 237 239 241 243 244 241 239
203 196 200 205 207 209 213 215 217 220 221 221 222 223 224 226 227 229 231 233 234 235 238 240 239 239 239 240 243 244 246 249 249 245 242 244 246 245 242 238 233 230 229 228 225 221 222 226 227 224 223 226 230 232 234 235 236 238 239 241 243 241 240
214 203 202 206 208 210 214 215 216 219 221 222 223 224 225 225 226 228 229 232 234 235 238 241 241 241 242 244 246 249 250 251 249 247 246 246 247 245 240 237 235 232 230 229 229 226 224 225 226 225 223 225 230 233 235 236 238 239 239 238 239 239 239
226 214 208 210 210 210 214 217 217 217 219 222 223 224 226 226 226 227 228 230 234 236 238 241 243 244 245 247 249 251 252 252 249 246 246 246 247 244 239 236 236 237 237 235 232 231 232 230 227 225 224 224 228 233 236 238 239 241 242 240 240 241 240
234 227 215 214 215 213 213 216 217 216 216 220 223 225 226 227 226 227 228 229 232 235 238 240 243 245 247 248 250 250 250 249 247 244 243 244 247 246 240 237 238 240 241 238 232 229 232 232 230 230 229 228 231 235 237 239 241 244 246 247 246 244 245
237 235 224 221 223 218 213 213 213 212 212 215 221 226 227 228 228 229 230 230 231 234 237 239 242 244 246 247 248 248 247 246 245 243 242 243 247 246 240 237 239 239 238 236 233 229 229 231 231 232 234 234 235 237 237 239 243 246 248 249 249 245 245
236 238 234 233 233 227 221 215 210 209 210 212 217 224 227 228 229 230 231 232 231 232 235 237 239 241 243 245 245 245 246 246 245 244 242 241 244 247 244 240 237 234 230 230 231 230 229 230 230 230 234 237 238 237 236 237 241 244 243 243 243 242 244
234 238 239 241 241 237 235 231 217 210 212 214 217 222 224 226 229 231 233 233 233 233 234 236 237 238 239 242 244 245 245 246 246 245 243 241 242 246 245 240 235 229 226 226 228 229 230 231 230 229 231 234 236 237 236 237 239 239 237 238 239 240 246
230 236 239 241 243 241 240 241 234 221 216 216 218 221 223 224 227 229 232 234 235 235 236 237 238 238 239 241 243 244 245 246 246 245 244 244 244 245 241 235 231 228 226 225 226 228 228 229 230 229 230 231 233 234 235 237 240 239 240 245 248 250 255
229 232 237 240 242 240 238 239 240 236 227 221 219 220 223 224 225 226 228 232 234 236 237 239 240 240 242 243 243 243 245 245 245 245 246 247 248 243 236 232 230 228 225 223 224 226 227 228 228 229 230 232 233 234 234 236 240 240 241 245 249 251 257
234 233 235 238 240 240 239 239 238 239 237 227 220 220 224 226 226 226 226 228 231 233 235 237 239 241 242 243 244 245 245 245 244 243 243 245 245 238 230 228 229 229 226 224 225 226 228 229 229 229 231 233 234 235 236 238 240 242 242 243 246 248 251
240 239 238 238 238 238 241 242 238 237 238 231 221 219 222 227 230 231 230 229 229 231 232 233 234 237 239 242 244 246 247 247 245 243 240 239 239 235 230 227 228 230 231 230 229 229 229 230 230 230 231 233 235 236 238 240 241 243 243 243 245 247 249
244 244 243 240 238 239 241 244 242 239 239 239 232 225 223 225 229 232 232 230 228 226 227 228 228 229 231 236 241 244 247 248 248 246 242 238 236 234 233 234 235 236 237 236 233 232 232 232 232 232 231 232 234 236 238 241 243 245 245 245 245 245 247
243 246 247 244 242 241 240 241 242 241 240 242 242 235 229 227 228 229 228 227 227 226 227 229 230 229 229 232 236 240 242 243 244 245 244 241 239 237 236 238 240 240 240 239 236 234 234 234 234 234 233 234 235 236 237 240 242 244 246 247 247 247 247
242 243 245 247 247 245 242 238 236 237 239 240 242 240 236 232 231 231 229 228 228 230 231 234 236 237 236 237 238 240 241 238 235 234 236 237 238 237 237 238 239 239 238 237 235 234 234 235 235 235 235 235 236 236 237 239 241 243 245 248 249 249 249
247 244 243 244 246 248 248 245 238 234 234 235 237 240 241 236 232 231 232 232 233 234 235 236 237 239 239 239 238 240 242 240 232 226 226 228 229 230 233 235 236 236 235 234 234 234 235 236 236 236 237 237 238 238 238 239 240 242 244 246 249 250 251
254 249 246 245 244 245 250 252 249 243 237 234 234 236 240 238 233 230 230 231 233 235 237 238 238 239 239 239 238 239 241 239 232 226 224 222 220 220 223 228 231 233 235 235 234 234 235 235 236 236 236 237 237 238 239 239 240 241 243 244 246 249 251
262 257 252 248 246 244 246 249 251 251 247 242 239 239 241 241 237 234 232 230 231 232 234 235 237 238 239 240 240 240 242 240 235 230 226 223 219 217 218 223 227 231 234 237 237 236 235 235 235 235 235 236 236 236 237 238 239 242 244 245 246 248 251
266 264 260 254 248 246 245 246 247 248 249 247 247 248 249 248 245 243 241 238 235 234 234 234 235 237 240 242 242 241 241 241 238 233 229 227 227 224 221 222 225 226 227 229 232 235 235 235 235 234 235 235 234 234 236 239 242 245 247 249 250 251 252
261 264 265 263 258 253 249 248 247 247 247 246 247 248 250 251 250 249 248 247 244 241 240 239 239 239 241 243 245 245 244 244 242 236 232 232 235 236 234 231 231 233 231 227 226 227 229 231 232 232 232 232 233 234 238 242 246 249 251 252 252 253 252
257 258 261 263 264 262 258 254 251 249 248 247 246 246 247 248 248 248 248 249 247 244 243 243 244 245 247 249 250 251 252 252 251 249 247 248 250 250 247 244 243 247 249 245 237 232 229 228 229 230 231 234 237 239 242 244 246 249 251 253 254 254 254
260 258 257 257 259 262 262 261 258 255 253 251 249 247 246 246 245 245 245 246 245 242 241 242 243 243 245 249 250 250 253 257 258 257 256 255 255 253 252 251 252 254 256 257 254 250 246 243 241 239 240 242 245 247 249 250 251 252 253 254 255 255 255
262 261 260 258 257 257 258 259 259 259 257 255 253 250 248 246 245 244 243 243 243 240 237 238 239 237 237 240 238 231 232 240 247 251 252 252 253 252 250 251 252 253 254 256 258 257 256 254 252 250 249 249 250 252 253 254 254 255 255 256 256 256 255
265 264 264 262 261 259 257 256 256 256 257 257 256 253 250 248 246 245 244 243 244 243 240 238 238 238 238 238 231 224 225 233 240 244 246 247 250 252 252 251 250 250 251 253 254 255 255 254 254 253 252 251 251 252 253 254 254 254 255 255 256 256 256
267 267 266 265 263 260 257 255 253 253 253 254 255 255 254 251 248 247 245 244 244 245 245 242 241 240 241 240 236 235 241 249 251 251 251 250 250 251 252 251 251 250 249 249 250 252 253 253 253 253 253 253 253 253 253 254 254 254 254 254 254 254 255
269 267 266 265 263 260 257 255 253 252 250 249 250 251 252 253 252 251 249 247 246 247 247 246 245 243 243 243 241 241 246 251 253 252 251 251 250 250 250 250 250 250 249 248 249 250 251 252 253 253 253 254 255 255 255 255 255 255 255 255 255 254 254
Height
5819 5822 5825 5828 5831 5833 5835 5836 5838 5842 5845 5848 5850 5852 5856 5861 5863 5863 5864 5867 5871 5875 5875 5876 5877 5880 5882 5884 5886 5888 5890 5892 5894 5895 5896 5897 5897 5898 5901 5903 5905 5907 5910 5912 5914 5915 5916 5918 5920 5921 5922 5923 5925 5926 5928 5929 5931 5932 5934 5935 5936 5937 5938
5816 5819 5823 5825 5828 5830 5833 5835 5839 5842 5843 5844 5847 5850 5853 5856 5859 5860 5862 5865 5869 5872 5874 5875 5877 5879 5881 5882 5885 5886 5888 5890 5892 5894 5895 5896 5897 5898 5900 5902 5904 5906 5909 5910 5912 5913 5915 5917 5919 5920 5922 5923 5924 5926 5927 5929 5930 5931 5932 5934 5935 5936 5937
5813 5817 5820 5821 5824 5827 5830 5834 5837 5839 5840 5842 5845 5847 5849 5852 5855 5858 5861 5864 5867 5870 5873 5875 5876 5878 5879 5881 5883 5885 5887 5889 5890 5892 5894 5895 5896 5898 5900 5902 5903 5904 5906 5907 5910 5912 5914 5916 5918 5919 5920 5922 5923 5925 5926 5927 5928 5930 5931 5932 5934 5935 5936
5810 5814 5817 5818 5821 5825 5828 5830 5833 5836 5838 5840 5843 5845 5847 5850 5852 5856 5860 5862 5864 5868 5871 5873 5874 5876 5878 5880 5882 5884 5886 5888 5889 5891 5892 5894 5895 5897 5899 5899 5899 5900 5902 5905 5908 5911 5913 5915 5916 5917 5919 5920 5921 5923 5924 5926 5927 5928 5929 5931 5933 5934 5935
5808 5811 5814 5816 5819 5822 5825 5827 5830 5833 5835 5838 5841 5843 5845 5847 5850 5853 5857 5860 5862 5866 5869 5872 5873 5874 5876 5878 5881 5883 5884 5886 5888 5889 5890 5892 5894 5895 5896 5896 5896 5899 5902 5903 5905 5907 5909 5912 5915 5916 5917 5918 5919 5920 5922 5924 5926 5927 5928 5929 5930 5932 5933
5806 5809 5811 5814 5816 5819 5821 5824 5827 5830 5832 5835 5838 5840 5842 5845 5847 5850 5854 5858 5861 5864 5867 5870 5872 5873 5875 5877 5879 5881 5882 5884 5885 5887 5888 5889 5891 5893 5894 5895 5896 5898 5901 5902 5903 5904 5907 5911 5913 5914 5915 5916 5917 5919 5921 5922 5924 5925 5927 5928 5929 5929 5930
5803 5806 5809 5811 5813 5816 5819 5822 5825 5828 5831 5832 5835 5837 5840 5842 5844 5848 5852 5855 5858 5861 5864 5868 5870 5871 5873 5875 5877 5879 5881 5882 5883 5884 5885 5886 5888 5890 5892 5894 5896 5897 5898 5899 5901 5903 5906 5908 5910 5910 5912 5914 5915 5917 5919 5920 5921 5923 5924 5925 5926 5928 5929
5801 5804 5807 5809 5811 5814 5817 5819 5822 5826 5828 5830 5832 5835 5837 5840 5842 5846 5849 5852 5855 5859 5862 5865 5868 5869 5871 5873 5875 5877 5879 5879 5880 5881 5883 5885 5887 5890 5891 5893 5895 5896 5897 5897 5899 5901 5903 5905 5905 5906 5908 5910 5913 5915 5917 5918 5919 5919 5920 5922 5923 5925 5926
5799 5801 5804 5806 5809 5812 5814 5817 5819 5822 5825 5827 5829 5832 5834 5837 5840 5843 5847 5850 5853 5856 5859 5862 5865 5867 5868 5871 5873 5875 5877 5877 5879 5880 5883 5885 5887 5889 5890 5891 5892 5893 5895 5896 5898 5899 5900 5901 5902 5903 5905 5908 5911 5914 5916 5917 5917 5917 5918 5918 5919 5921 5922
5795 5798 5801 5803 5806 5809 5812 5814 5816 5819 5822 5824 5826 5829 5832 5835 5838 5840 5844 5847 5850 5853 5856 5859 5862 5865 5866 5868 5871 5873 5874 5875 5877 5879 5881 5884 5886 5887 5887 5888 5889 5891 5893 5895 5896 5897 5897 5897 5899 5901 5904 5907 5910 5911 5912 5912 5913 5914 5915 5915 5916 5918 5919
5790 5795 5798 5800 5803 5806 5809 5811 5814 5816 5819 5821 5823 5826 5829 5832 5836 5838 5841 5844 5847 5850 5853 5856 5859 5862 5864 5866 5868 5870 5871 5872 5874 5876 5879 5882 5884 5884 5885 5886 5888 5889 5891 5892 5894 5895 5895 5895 5896 5899 5902 5904 5906 5907 5907 5908 5909 5910 5912 5913 5914 5915 5916
5787 5791 5795 5798 5801 5803 5805 5809 5811 5814 5816 5818 5821 5824 5827 5830 5833 5835 5838 5842 5845 5848 5850 5853 5856 5859 5861 5863 5864 5866 5868 5870 5871 5874 5876 5879 5881 5882 5883 5884 5886 5888 5889 5889 5891 5893 5893 5893 5895 5897 5898 5899 5902 5903 5905 5906 5907 5908 5910 5912 5912 5913 5913
5786 5789 5792 5796 5799 5801 5803 5806 5809 5811 5814 5816 5819 5821 5824 5827 5830 5833 5836 5839 5842 5844 5847 5849 5853 5855 5858 5860 5861 5863 5865 5867 5869 5871 5873 5876 5878 5879 5880 5881 5883 5885 5886 5886 5888 5890 5891 5892 5893 5895 5896 5898 5899 5901 5902 5903 5904 5905 5907 5909 5908 5908 5909
5784 5787 5790 5793 5795 5798 5802 5805 5807 5809 5811 5814 5816 5818 5820 5823 5826 5829 5833 5835 5838 5841 5843 5846 5849 5852 5854 5857 5858 5860 5862 5864 5866 5868 5870 5873 5875 5876 5878 5879 5880 5882 5883 5884 5885 5887 5888 5890 5891 5893 5895 5896 5897 5898 5899 5900 5901 5902 5904 5905 5905 5904 5905
5781 5784 5787 5791 5793 5796 5800 5803 5805 5807 5809 5811 5813 5816 5818 5820 5823 5826 5829 5832 5835 5838 5841 5843 5845 5848 5851 5853 5855 5857 5859 5860 5863 5865 5867 5869 5871 5873 5875 5876 5877 5879 5881 5882 5883 5885 5886 5888 5889 5891 5892 5893 5894 5895 5897 5897 5898 5899 5901 5902 5902 5901 5902
5779 5782 5785 5789 5792 5794 5796 5799 5802 5805 5807 5809 5811 5813 5815 5818 5820 5823 5826 5830 5833 5835 5838 5840 5842 5845 5847 5849 5852 5854 5855 5857 5860 5862 5864 5865 5868 5870 5871 5873 5875 5876 5878 5879 5881 5883 5885 5886 5888 5889 5890 5891 5892 5893 5894 5895 5895 5896 5898 5899 5899 5899 5899
5777 5780 5783 5787 5789 5790 5791 5794 5798 5802 5804 5806 5808 5810 5813 5815 5818 5821 5824 5827 5830 5832 5834 5837 5839 5841 5843 5846 5848 5850 5852 5854 5857 5859 5861 5863 5865 5867 5868 5870 5872 5873 5875 5876 5878 5880 5883 5884 5885 5886 5887 5888 5889 5890 5892 5892 5892 5893 5894 5895 5895 5896 5897
5776 5778 5781 5783 5784 5786 5788 5791 5795 5798 5801 5803 5805 5807 5810 5813 5816 5819 5821 5823 5826 5828 5830 5833 5835 5838 5840 5842 5844 5847 5849 5851 5854 5856 5858 5860 5862 5864 5866 5867 5869 5870 5872 5873 5875 5877 5879 5881 5882 5883 5884 5884 5886 5887 5889 5889 5889 5890 5891 5892 5893 5894 5894
5775 5776 5779 5781 5781 5784 5787 5789 5792 5796 5797 5799 5802 5804 5807 5810 5813 5816 5818 5820 5823 5825 5827 5829 5831 5834 5837 5839 5841 5844 5846 5848 5850 5853 5855 5857 5859 5861 5863 5864 5865 5866 5868 5870 5871 5873 5876 5877 5879 5880 5881 5881 5883 5884 5885 5885 5886 5887 5889 5890 5890 5891 5891
5773 5774 5776 5778 5780 5783 5785 5787 5790 5793 5794 5796 5799 5801 5803 5806 5809 5812 5815 5817 5820 5823 5824 5826 5828 5831 5834 5836 5839 5841 5843 5845 5847 5849 5851 5853 5856 5857 5859 5859 5860 5862 5864 5866 5868 5870 5872 5874 5875 5876 5877 5878 5879 5880 5881 5882 5883 5884 5886 5887 5887 5888 5888
5770 5772 5774 5775 5776 5779 5783 5785 5787 5789 5791 5793 5795 5797 5799 5801 5805 5808 5811 5814 5817 5819 5821 5823 5826 5829 5831 5834 5836 5838 5840 5841 5843 5845 5848 5849 5851 5853 5854 5854 5856 5858 5860 5862 5864 5866 5868 5870 5871 5873 5874 5875 5876 5877 5878 5879 5879 5881 5883 5884 5885 5886 5886
5768 5770 5771 5772 5775 5777 5779 5782 5784 5786 5788 5790 5791 5794 5796 5798 5801 5805 5808 5811 5813 5815 5816 5819 5822 5825 5828 5830 5832 5834 5836 5837 5839 5842 5844 5846 5847 5849 5850 5851 5853 5855 5857 5859 5861 5862 5864 5866 5868 5869 5871 5872 5873 5874 5875 5876 5876 5878 5879 5881 5882 5883 5884
5766 5768 5769 5771 5773 5774 5775 5777 5781 5783 5785 5786 5788 5791 5794 5796 5799 5802 5805 5808 5810 5811 5812 5814 5818 5821 5824 5826 5827 5829 5831 5832 5834 5837 5839 5841 5842 5844 5846 5848 5849 5851 5853 5855 5857 5858 5860 5862 5863 5865 5867 5868 5869 5871 5871 5872 5873 5874 5876 5877 5879 5880 5881
5764 5765 5766 5769 5771 5771 5772 5775 5778 5780 5781 5784 5787 5789 5791 5793 5795 5798 5801 5804 5805 5807 5808 5811 5813 5816 5818 5820 5822 5823 5826 5827 5828 5830 5833 5835 5837 5839 5841 5843 5844 5846 5848 5850 5852 5854 5855 5857 5858 5860 5861 5863 5864 5866 5867 5868 5869 5870 5872 5873 5875 5877 5878
5762 5763 5764 5766 5767 5768 5770 5773 5774 5776 5778 5781 5784 5786 5788 5790 5791 5794 5796 5798 5800 5803 5805 5807 5809 5810 5811 5814 5817 5818 5820 5821 5821 5822 5824 5828 5830 5833 5835 5837 5839 5841 5843 5845 5848 5849 5851 5852 5853 5855 5856 5857 5859 5861 5862 5864 5865 5866 5867 5869 5871 5873 5875
5761 5761 5762 5763 5763 5765 5768 5770 5771 5773 5775 5779 5782 5784 5785 5787 5788 5789 5792 5794 5796 5798 5801 5803 5804 5806 5809 5811 5813 5814 5815 5816 5816 5815 5816 5820 5823 5825 5828 5831 5834 5836 5838 5840 5843 5844 5846 5847 5849 5850 5852 5853 5855 5856 5858 5860 5861 5863 5864 5866 5867 5869 5871
5759 5759 5760 5761 5761 5762 5764 5766 5768 5770 5772 5775 5778 5780 5782 5783 5784 5786 5788 5789 5791 5794 5796 5799 5801 5804 5806 5807 5808 5809 5810 5811 5811 5810 5811 5814 5816 5818 5822 5825 5828 5831 5833 5835 5837 5839 5841 5843 5845 5847 5849 5850 5852 5853 5855 5857 5858 5860 5861 5863 5864 5866 5868
5757 5758 5758 5759 5760 5761 5761 5762 5763 5766 5769 5772 5774 5776 5777 5779 5781 5782 5784 5785 5787 5789 5792 5794 5797 5799 5801 5802 5803 5803 5804 5806 5808 5807 5807 5809 5811 5812 5816 5819 5822 5825 5827 5829 5831 5833 5835 5838 5840 5843 5845 5847 5849 5850 5852 5853 5855 5856 5858 5860 5861 5863 5864
5755 5756 5757 5757 5758 5759 5759 5759 5760 5762 5764 5767 5769 5770 5772 5774 5776 5778 5780 5782 5783 5785 5787 5790 5792 5794 5796 5797 5799 5800 5800 5802 5804 5804 5804 5806 5807 5808 5811 5813 5816 5818 5821 5823 5826 5828 5830 5833 5835 5838 5840 5843 5844 5846 5847 5849 5851 5852 5854 5855 5857 5859 5860
5753 5754 5755 5755 5756 5756 5757 5757 5758 5759 5760 5762 5764 5765 5767 5769 5771 5773 5775 5777 5779 5781 5783 5785 5787 5789 5791 5792 5794 5796 5797 5798 5798 5799 5800 5802 5803 5804 5806 5809 5811 5812 5814 5816 5819 5821 5824 5827 5830 5833 5835 5837 5840 5841 5843 5844 5845 5847 5849 5850 5852 5854 5855
5752 5752 5752 5753 5753 5754 5754 5754 5755 5756 5757 5758 5759 5760 5762 5764 5765 5767 5769 5771 5774 5776 5778 5780 5782 5783 5785 5787 5788 5790 5791 5792 5793 5794 5795 5796 5798 5800 5802 5804 5805 5807 5809 5811 5813 5815 5818 5822 5825 5827 5829 5832 5834 5836 5838 5839 5840 5842 5843 5845 5846 5848 5850
5750 5750 5750 5750 5750 5751 5751 5752 5752 5753 5754 5755 5756 5757 5758 5759 5761 5762 5764 5766 5768 5771 5773 5775 5776 5778 5780 5782 5783 5784 5785 5785 5786 5787 5789 5790 5792 5794 5796 5798 5799 5801 5803 5806 5808 5811 5813 5816 5819 5821 5823 5825 5827 5829 5831 5833 5835 5836 5838 5839 5841 5842 5844
5746 5747 5747 5748 5748 5748 5748 5748 5749 5749 5750 5751 5751 5753 5754 5755 5757 5758 5759 5761 5763 5766 5768 5769 5771 5773 5775 5776 5776 5778 5780 5779 5778 5779 5781 5782 5785 5788 5790 5792 5794 5795 5797 5799 5803 5805 5808 5810 5812 5815 5817 5819 5821 5822 5825 5827 5829 5830 5832 5834 5835 5837 5838
5743 5743 5744 5744 5745 5745 5745 5745 5745 5745 5745 5746 5747 5748 5750 5751 5752 5753 5755 5756 5757 5759 5761 5762 5764 5767 5769 5769 5770 5772 5774 5773 5773 5773 5774 5775 5778 5780 5783 5785 5787 5789 5791 5794 5797 5799 5801 5803 5805 5808 5810 5812 5814 5816 5817 5819 5821 5823 5825 5827 5829 5831 5832
5739 5739 5739 5740 5740 5741 5741 5741 5741 5741 5741 5741 5742 5743 5744 5746 5747 5749 5750 5751 5752 5753 5755 5757 5758 5760 5761 5763 5765 5765 5764 5765 5767 5768 5769 5770 5772 5774 5776 5778 5781 5784 5786 5789 5791 5793 5794 5796 5798 5800 5802 5804 5806 5808 5810 5812 5814 5816 5818 5820 5822 5824 5826
5734 5734 5734 5734 5735 5736 5736 5736 5737 5737 5737 5737 5737 5738 5739 5740 5742 5743 5744 5746 5747 5748 5749 5751 5753 5754 5755 5757 5759 5759 5758 5759 5761 5763 5764 5766 5768 5769 5771 5773 5775 5778 5781 5783 5785 5786 5787 5789 5791 5793 5795 5797 5798 5801 5803 5805 5807 5809 5811 5812 5815 5817 5819
5729 5729 5729 5729 5729 5729 5730 5730 5731 5731 5732 5732 5733 5733 5734 5734 5735 5737 5738 5739 5741 5742 5743 5744 5746 5748 5749 5750 5752 5753 5753 5754 5756 5758 5760 5761 5763 5764 5766 5768 5770 5773 5775 5777 5779 5780 5781 5783 5784 5787 5788 5790 5792 5794 5796 5798 5800 5802 5804 5805 5807 5810 5812